This demonstration page uses our WeatherBlox Daily Observations layout. Learn more.

Left ArrowRight Arrow

39.08367, -84.50855

Hourly Observations for March 4, 2018

Temp ( °F °C ) Dew Point ( °F °C ) Humidity (%) Winds ( mph kmh ) Pressure ( in mb ) Visibility ( mi km ) Precip ( " mm )
12:53 am 00:53 Clear 33 0.6 23 -5 66 66 NE 7 11 30.47 1032 10 16 N/A
1:53 am 01:53 Clear 32 undefined 21 -6.1 64 64 NNE 5 7 30.47 1032 10 16 N/A
2:53 am 02:53 Clear 32 undefined 21 -6.1 64 64 N N/A 30.46 1032 10 16 N/A
3:53 am 03:53 Clear 31 -0.6 25 -3.9 79 79 N N/A 30.45 1031 10 16 N/A
4:53 am 04:53 Clear 31 -0.6 23 -5 72 72 NNE 3 6 30.46 1032 10 16 N/A
5:53 am 05:53 Clear 29 -1.7 20 -6.7 69 69 N 5 7 30.48 1032 10 16 N/A
6:53 am 06:53 Clear 29 -1.7 21 -6.1 72 72 NNE 3 6 30.49 1033 10 16 N/A
7:53 am 07:53 Sunny 31 -0.6 23 -5 72 72 NE 3 6 30.50 1033 10 16 N/A
8:53 am 08:53 Sunny 33 0.6 23 -5 66 66 ENE 9 15 30.50 1033 10 16 N/A
9:53 am 09:53 Sunny 37 2.8 24 -4.4 59 59 ENE 8 13 30.49 1033 10 16 N/A
10:53 am 10:53 Sunny 41 5 25 -3.9 53 53 NE 8 13 30.48 1032 10 16 N/A
11:53 am 11:53 Sunny 44 6.7 25 -3.9 47 47 ENE 8 13 30.46 1032 10 16 N/A
12:53 pm 12:53 Sunny 47 8.3 24 -4.4 41 41 NNE 12 19 30.43 1030 10 16 N/A
1:53 pm 13:53 Sunny 49 9.4 24 -4.4 38 38 NNE 10 17 30.39 1029 10 16 N/A
2:53 pm 14:53 Sunny 50 10 23 -5 35 35 NE 10 17 30.37 1029 10 16 N/A
3:53 pm 15:53 Sunny 50 10 26 -3.3 39 39 NE 10 17 30.35 1028 10 16 N/A
4:53 pm 16:53 Sunny 49 9.4 26 -3.3 41 41 NE 14 22 30.34 1027 10 16 N/A
5:53 pm 17:53 Sunny 47 8.3 26 -3.3 44 44 NE 12 19 30.33 1027 10 16 N/A
6:53 pm 18:53 Clear 44 6.7 26 -3.3 49 49 NE 9 15 30.33 1027 10 16 N/A
7:53 pm 19:53 Clear 41 5 26 -3.3 55 55 NE 7 11 30.33 1027 10 16 N/A
8:53 pm 20:53 Clear 40 4.4 26 -3.3 58 58 NE 5 7 30.33 1027 10 16 N/A
9:53 pm 21:53 Clear 37 2.8 30 -1.1 76 76 N N/A 30.34 1027 10 16 N/A
10:53 pm 22:53 Clear 36 2.2 26 -3.3 67 67 NE 7 11 30.33 1027 10 16 N/A
11:53 pm 23:53 Clear 35 1.7 26 -3.3 70 70 NE 7 11 30.32 1027 10 16 N/A

Powered by AerisWeather